CAPE
0 0 0 0 0 0 14 0 0 0 0 0 0 0 0 0 1 87 419 407 521 184 102 318 631 1043 1093 860 576 493 520 788 985 1182 1266 1223 1258 1420 1736 1916 2132 2134 2157 2060 1675 1261 869 759 834
0 0 0 0 0 0 0 0 0 0 0 0 0 0 0 0 25 276 342 268 521 209 71 372 580 952 1024 799 491 616 683 782 950 1181 1149 1114 1156 1197 1632 1844 1998 2161 2061 1722 1494 1199 1031 1088 953
0 0 0 0 0 0 0 0 0 0 0 0 0 0 0 0 7 447 346 260 288 89 107 353 506 828 897 661 643 803 726 666 835 986 957 927 955 957 1176 1634 1855 1942 1786 1359 1384 1249 971 824 747
0 0 0 0 0 0 0 0 0 0 0 0 0 0 0 0 36 328 477 364 265 113 111 54 293 617 740 648 778 828 559 555 686 740 719 796 648 573 678 1157 1529 1584 1425 1271 1170 1036 605 547 609
0 0 0 0 0 0 0 0 0 0 0 0 0 18 58 52 127 240 422 397 321 144 431 20 79 391 635 697 783 664 398 439 571 455 475 327 156 261 464 835 1313 1429 1284 1166 885 642 477 403 366
0 0 0 0 0 0 0 0 0 0 0 0 0 90 145 52 128 224 361 494 490 493 448 28 0 172 462 614 668 462 286 359 350 287 197 62 133 247 567 891 1113 1235 1007 666 408 357 348 329 327
0 0 0 0 0 0 0 0 0 0 0 0 0 106 417 33 195 221 419 678 690 684 834 79 1 73 206 411 503 296 256 272 134 192 53 18 66 266 589 941 919 879 608 290 142 225 181 156 246
0 0 0 0 0 0 0 0 0 0 0 0 0 0 243 326 122 388 620 866 985 940 1357 456 6 17 174 297 315 225 255 105 49 64 11 21 53 290 562 857 784 509 288 109 105 104 190 340 281
0 0 0 0 0 0 0 0 0 0 0 0 0 180 821 347 161 302 908 1036 1200 1151 1591 567 79 2 60 237 254 217 122 3 13 5 27 55 143 315 580 705 649 263 59 42 119 192 211 158 44
0 0 0 0 0 0 0 0 0 0 0 0 0 0 254 320 97 227 548 996 1224 1402 1613 1089 458 178 93 0 69 44 1 0 0 3 42 65 176 166 513 470 613 199 36 27 50 65 42 0 0
0 0 0 0 0 0 0 0 0 0 0 0 0 0 0 0 41 58 134 447 949 1338 1627 1802 986 700 538 90 283 0 1 0 0 0 122 16 71 73 198 296 411 115 0 0 1 0 0 0 0
0 0 0 0 0 0 0 0 0 0 0 0 0 0 0 0 0 0 0 0 417 1128 1587 1741 1681 1274 749 506 661 109 201 107 35 126 245 1 47 224 198 367 196 18 0 0 0 8 0 20 84
0 0 0 0 0 0 0 0 0 0 0 0 0 0 0 0 0 0 0 0 0 678 1388 1640 1841 1750 1217 983 875 542 304 221 283 312 451 102 184 581 285 655 502 122 120 3 148 112 150 143 425
0 0 0 0 0 0 0 0 0 0 0 0 0 0 0 0 0 0 0 0 0 0 1263 1535 1731 1838 1934 1570 1391 1112 439 509 515 510 676 636 616 871 582 365 545 286 427 151 277 253 568 433 735
0 0 0 0 0 0 0 0 0 0 0 0 0 0 0 0 0 0 0 0 0 0 1090 1345 1530 1923 1948 1767 1659 1348 1166 1009 701 859 913 970 821 1309 1036 747 698 669 572 749 401 854 750 859 765
0 0 0 0 0 0 0 0 0 0 0 0 0 0 0 0 0 0 0 0 0 0 31 1366 1319 1749 1868 2001 1560 1749 1274 958 1093 996 1279 1402 994 1423 1467 1286 975 906 924 890 798 1093 918 756 823
0 0 0 0 0 0 0 0 0 0 0 0 0 0 0 0 0 0 0 0 0 0 0 1095 1330 1267 1808 1865 1673 1381 1340 1413 1159 1160 1308 1829 1539 1118 1818 1381 1337 1144 1127 952 839 707 1038 855 647
0 0 0 0 0 0 0 0 0 0 0 0 0 0 0 0 0 0 0 0 0 0 0 364 1020 1239 1697 1765 1812 1586 1619 1610 1129 1432 1057 1851 1835 1492 1497 1549 1319 1505 1203 1163 1086 855 925 768 813
0 0 0 0 0 0 0 0 0 0 0 0 0 0 0 0 0 0 0 0 0 0 0 0 399 1365 1673 1729 1784 1761 1629 1489 1526 1349 1411 1277 1883 1706 1231 1705 1383 1407 1242 1007 1074 1044 982 880 903
0 0 0 0 0 0 0 0 0 0 0 0 0 0 0 0 0 0 0 0 0 0 0 0 0 525 1575 1838 1789 1800 1620 1488 1583 1525 1351 1508 1757 1720 1456 1751 1571 1193 1057 1086 996 1040 1004 1013 903
0 0 0 0 0 0 0 0 0 0 0 0 0 0 0 0 0 0 0 0 0 0 0 0 13 2 1072 1654 1755 1733 1888 1562 1629 1324 1411 1491 1900 1802 1404 1231 1483 1519 1256 1190 1147 1054 885 916 864
0 0 0 0 0 0 0 0 0 0 0 0 0 0 0 0 0 0 0 0 0 4 223 335 297 150 5 1281 1561 1575 1155 1297 1406 1481 1653 1756 1799 1590 1245 1088 1042 1233 1455 1403 1183 1378 1117 879 647
0 0 0 0 0 0 0 0 0 0 0 0 0 0 0 0 0 0 0 0 1 301 514 540 334 59 71 485 1252 1356 1385 1385 1366 1441 1383 1272 1142 1050 906 842 855 886 874 833 885 1108 1144 755 506
0 0 0 0 0 0 0 0 0 0 0 0 0 0 0 0 0 0 0 58 183 464 253 235 155 0 0 506 1122 1156 1134 987 860 651 804 740 741 665 658 564 666 660 736 793 774 895 1086 938 574
0 0 0 0 0 0 0 0 0 0 0 0 0 0 0 0 0 0 77 147 197 468 203 88 342 357 610 934 952 854 613 501 543 403 293 211 180 135 159 246 288 432 473 351 263 381 432 499 394
0 0 0 0 0 0 0 0 0 0 0 0 0 0 0 0 0 0 33 110 224 414 155 67 59 226 381 655 515 446 452 701 346 192 27 27 25 16 17 20 37 22 3 0 1 0 1 1 3
0 0 0 0 0 0 0 0 0 0 0 0 0 0 0 0 0 0 0 40 463 328 58 110 100 37 15 42 28 23 216 251 76 25 11 4 10 11 2 0 1 0 0 1 0 1 1 1 2
0 0 0 0 0 0 0 0 0 0 0 0 0 0 0 0 0 0 0 160 371 193 63 49 21 5 16 57 137 66 64 34 15 3 0 0 0 1 1 1 0 0 0 1 1 0 0 0 0
0 0 0 0 0 0 0 0 0 0 0 0 0 0 0 0 0 0 0 121 220 64 11 0 0 0 0 0 0 0 0 0 1 1 1 0 0 0 0 1 0 0 0 0 0 0 0 0 1
0 0 0 0 0 0 0 0 0 0 0 0 0 0 0 0 0 0 0 49 73 2 0 0 0 0 0 0 0 1 1 0 0 0 1 1 1 1 0 0 0 0 0 0 0 0 0 0 0
CIN
-0 -0 -0 -0 -0 -0 -18 -0 -0 -0 -0 -0 -0 -0 -0 -0 -2 -87 -125 -148 -282 -404 -550 -452 -361 -286 -263 -272 -294 -295 -272 -211 -161 -134 -118 -111 -97 -73 -32 -15 -7 -9 -8 -11 -33 -67 -110 -121 -113
-0 -0 -0 -0 -0 -0 -0 -0 -0 -0 -0 -0 -0 -0 -0 -0 -114 -109 -130 -170 -246 -395 -514 -446 -379 -292 -261 -258 -303 -266 -241 -207 -166 -130 -141 -138 -122 -107 -48 -23 -12 -4 -11 -24 -45 -69 -85 -85 -89
-0 -0 -0 -0 -0 -0 -0 -0 -0 -0 -0 -0 -0 -0 -0 -0 -24 -79 -139 -171 -239 -375 -430 -445 -401 -298 -257 -268 -250 -227 -229 -216 -183 -156 -160 -173 -162 -151 -111 -53 -26 -15 -23 -60 -45 -66 -91 -102 -106
-0 -0 -0 -0 -0 -0 -0 -0 -0 -0 -0 -0 -0 -0 -0 -0 -71 -107 -127 -171 -225 -330 -359 -539 -449 -325 -281 -264 -213 -207 -250 -230 -198 -188 -192 -189 -213 -215 -183 -118 -73 -57 -63 -72 -79 -77 -128 -133 -117
-0 -0 -0 -0 -0 -0 -0 -0 -0 -0 -0 -0 -0 -20 -61 -103 -114 -141 -139 -154 -207 -292 -365 -562 -518 -375 -283 -245 -221 -222 -253 -239 -212 -238 -235 -268 -302 -272 -229 -166 -96 -82 -92 -96 -119 -141 -143 -156 -159
-0 -0 -0 -0 -0 -0 -0 -0 -0 -0 -0 -0 -0 -13 -59 -114 -124 -145 -133 -148 -160 -252 -350 -535 -0 -451 -332 -265 -236 -251 -263 -246 -250 -271 -299 -359 -318 -277 -222 -169 -127 -107 -133 -172 -195 -198 -186 -171 -164
-0 -0 -0 -0 -0 -0 -0 -0 -0 -0 -0 -0 -0 -3 -44 -103 -102 -127 -118 -129 -147 -209 -289 -491 -131 -512 -412 -307 -274 -283 -264 -262 -305 -295 -342 -361 -343 -276 -218 -166 -164 -163 -196 -246 -275 -231 -228 -219 -192
-0 -0 -0 -0 -0 -0 -0 -0 -0 -0 -0 -0 -0 -0 -22 -70 -118 -108 -113 -117 -139 -171 -216 -368 -609 -563 -425 -347 -315 -300 -255 -301 -327 -319 -374 -357 -344 -271 -218 -169 -176 -220 -251 -280 -285 -292 -228 -183 -185
-0 -0 -0 -0 -0 -0 -0 -0 -0 -0 -0 -0 -0 -5 -42 -88 -113 -97 -118 -130 -145 -164 -170 -329 -487 -198 -443 -360 -338 -305 -314 -273 -368 -378 -348 -374 -311 -265 -210 -171 -187 -250 -302 -321 -281 -244 -237 -253 -226
-0 -0 -0 -0 -0 -0 -0 -0 -0 -0 -0 -0 -0 -0 -84 -91 -112 -94 -103 -120 -121 -151 -173 -260 -337 -391 -405 -11 -392 -391 -23 -0 -0 -259 -387 -346 -260 -273 -184 -180 -163 -270 -342 -365 -370 -362 -372 -0 -0
-0 -0 -0 -0 -0 -0 -0 -0 -0 -0 -0 -0 -0 -0 -0 -0 -145 -107 -92 -73 -93 -128 -168 -191 -269 -275 -290 -336 -322 -0 -56 -0 -0 -0 -321 -355 -291 -278 -220 -220 -195 -302 -0 -47 -75 -0 -0 -0 -0
-0 -0 -0 -0 -0 -0 -0 -0 -0 -0 -0 -0 -0 -0 -0 -0 -0 -0 -0 -0 -30 -101 -138 -199 -216 -222 -258 -238 -254 -352 -291 -306 -317 -272 -252 -72 -291 -212 -214 -201 -235 -363 -0 -18 -21 -459 -59 -364 -240
-0 -0 -0 -0 -0 -0 -0 -0 -0 -0 -0 -0 -0 -0 -0 -0 -0 -0 -0 -0 -0 -49 -135 -185 -216 -182 -219 -188 -186 -252 -269 -277 -238 -198 -173 -266 -222 -107 -161 -101 -158 -249 -273 -128 -259 -259 -235 -221 -140
-0 -0 -0 -0 -0 -0 -0 -0 -0 -0 -0 -0 -0 -0 -0 -0 -0 -0 -0 -0 -0 -0 -107 -162 -211 -202 -140 -138 -98 -160 -248 -233 -186 -167 -122 -131 -97 -50 -86 -109 -130 -199 -153 -228 -170 -168 -92 -105 -54
-0 -0 -0 -0 -0 -0 -0 -0 -0 -0 -0 -0 -0 -0 -0 -0 -0 -0 -0 -0 -0 -0 -84 -163 -183 -180 -157 -145 -92 -89 -115 -110 -171 -117 -106 -93 -64 -3 -35 -43 -35 -75 -110 -72 -107 -20 -27 -27 -27
-0 -0 -0 -0 -0 -0 -0 -0 -0 -0 -0 -0 -0 -0 -0 -0 -0 -0 -0 -0 -0 -0 -45 -149 -189 -153 -160 -127 -120 -63 -77 -104 -98 -90 -48 -61 -73 -7 -6 -13 -7 -10 -17 -15 -14 -5 -8 -19 -10
-0 -0 -0 -0 -0 -0 -0 -0 -0 -0 -0 -0 -0 -0 -0 -0 -0 -0 -0 -0 -0 -0 -0 -102 -161 -163 -161 -129 -126 -111 -83 -66 -68 -81 -34 -20 -53 -35 -7 -7 -5 -7 -4 -19 -26 -13 -3 -3 -13
-0 -0 -0 -0 -0 -0 -0 -0 -0 -0 -0 -0 -0 -0 -0 -0 -0 -0 -0 -0 -0 -0 -0 -90 -139 -148 -149 -142 -102 -96 -53 -55 -102 -51 -76 -9 -38 -39 -9 -9 -9 -9 -10 -7 -25 -32 -5 -12 -7
-0 -0 -0 -0 -0 -0 -0 -0 -0 -0 -0 -0 -0 -0 -0 -0 -0 -0 -0 -0 -0 -0 -0 -0 -84 -115 -98 -132 -113 -84 -87 -76 -62 -62 -58 -41 -26 -50 -35 -8 -11 -9 -11 -17 -15 -10 -6 -4 -4
-0 -0 -0 -0 -0 -0 -0 -0 -0 -0 -0 -0 -0 -0 -0 -0 -0 -0 -0 -0 -0 -0 -0 -0 -0 -95 -77 -63 -73 -49 -49 -46 -33 -41 -54 -23 -34 -57 -56 -16 -11 -12 -14 -14 -16 -8 -9 -7 -10
-0 -0 -0 -0 -0 -0 -0 -0 -0 -0 -0 -0 -0 -0 -0 -0 -0 -0 -0 -0 -0 -0 -0 -0 -147 -67 -76 -40 -21 -9 -2 -5 -5 -32 -29 -28 -35 -81 -75 -83 -25 -4 -12 -29 -25 -17 -21 -19 -24
-0 -0 -0 -0 -0 -0 -0 -0 -0 -0 -0 -0 -0 -0 -0 -0 -0 -0 -0 -0 -0 -133 -303 -313 -311 -284 -275 -50 -17 -8 -7 -3 -7 -17 -11 -27 -59 -99 -97 -108 -78 -44 -8 -6 -12 -8 -10 -22 -40
-0 -0 -0 -0 -0 -0 -0 -0 -0 -0 -0 -0 -0 -0 -0 -0 -0 -0 -0 -0 -4 -314 -336 -353 -382 -368 -306 -143 -27 -9 -2 -12 -12 -18 -33 -58 -118 -126 -120 -126 -124 -84 -68 -62 -47 -15 -7 -39 -62
-0 -0 -0 -0 -0 -0 -0 -0 -0 -0 -0 -0 -0 -0 -0 -0 -0 -0 -0 -365 -316 -386 -440 -434 -414 -0 -0 -155 -47 -39 -27 -18 -11 -43 -51 -97 -111 -140 -141 -135 -115 -102 -88 -64 -53 -30 -6 -14 -47
-0 -0 -0 -0 -0 -0 -0 -0 -0 -0 -0 -0 -0 -0 -0 -0 -0 -53 -308 -350 -335 -406 -493 -528 -342 -261 -144 -96 -78 -83 -56 -29 -15 -71 -116 -159 -208 -224 -229 -186 -162 -134 -121 -123 -118 -83 -58 -39 -41
-0 -0 -0 -0 -0 -0 -0 -0 -0 -0 -0 -0 -0 -0 -0 -0 -0 -0 -362 -353 -316 -390 -548 -585 -540 -354 -237 -131 -144 -105 -95 -51 -94 -132 -249 -277 -297 -302 -282 -251 -225 -218 -25 -0 -5 -1 -1 -0 -9
-0 -0 -0 -0 -0 -0 -0 -0 -0 -0 -0 -0 -0 -0 -0 -0 -0 -0 -0 -372 -313 -448 -665 -543 -482 -478 -423 -292 -228 -194 -123 -111 -180 -225 -275 -283 -309 -249 -0 -0 -0 -0 -0 -0 -0 -0 -0 -0 -0
-0 -0 -0 -0 -0 -0 -0 -0 -0 -0 -0 -0 -0 -0 -0 -0 -0 -0 -0 -310 -332 -494 -612 -583 -622 -310 -368 -231 -123 -151 -149 -155 -199 -47 -0 -0 -0 -0 -0 -0 -0 -0 -0 -0 -1 -0 -0 -0 -0
-0 -0 -0 -0 -0 -0 -0 -0 -0 -0 -0 -0 -0 -0 -0 -0 -0 -0 -0 -307 -390 -605 -725 -0 -0 -0 -0 -2 -0 -0 -0 -0 -0 -0 -0 -0 -0 -0 -0 -1 -0 -0 -0 -0 -0 -0 -0 -0 -0
-0 -0 -0 -0 -0 -0 -0 -0 -0 -0 -0 -0 -0 -0 -0 -0 -0 -0 -0 -291 -452 -340 -0 -0 -0 -0 -0 -0 -0 -0 -0 -0 -0 -0 -2 -1 -1 -1 -0 -0 -0 -0 -0 -0 -0 -0 -0 -0 -0
Wind_Speed
21 19 16 16 15 15 11 16 19 20 20 22 24 24 25 25 24 22 22 22 23 22 22 23 23 24 25 24 23 23 23 24 25 26 26 27 27 26 27 27 27 27 27 27 27 28 28 28 29
21 20 19 17 16 13 15 14 17 19 20 20 22 22 24 26 25 23 22 22 23 22 22 22 23 24 25 25 24 23 22 23 24 24 25 26 26 26 26 26 26 26 26 26 27 27 28 29 29
22 21 20 14 13 13 14 14 17 18 17 17 18 22 21 23 23 22 22 22 22 22 22 22 23 24 25 24 24 23 22 22 23 23 24 25 25 25 24 25 25 25 25 26 26 25 24 26 27
21 15 22 6 17 16 15 15 15 15 15 17 18 17 21 21 20 20 21 22 21 21 21 21 22 23 24 24 23 22 22 22 21 22 23 23 24 24 24 24 24 24 25 25 26 25 24 25 25
26 23 19 13 15 12 13 14 13 12 14 15 17 16 17 19 21 21 21 20 20 20 20 20 21 22 22 23 22 22 21 21 20 20 21 22 22 23 23 23 23 23 23 24 25 25 24 24 24
22 6 8 13 11 9 12 13 11 12 12 12 13 15 16 17 18 18 19 18 19 19 19 19 19 20 21 21 21 21 21 20 19 18 19 20 21 21 22 22 22 22 22 22 23 23 23 22 21
22 25 19 28 16 11 9 13 9 9 11 10 16 17 13 13 16 16 16 16 17 18 17 17 17 18 19 20 20 20 20 19 18 17 17 18 18 19 19 20 21 21 21 21 21 21 21 20 20
26 29 32 33 30 17 8 10 15 14 15 12 17 20 6 14 14 14 15 14 14 15 15 16 16 17 17 18 18 18 18 17 16 16 15 16 16 17 17 18 19 20 20 19 19 19 18 18 17
25 25 23 10 26 12 8 9 11 18 14 14 13 18 14 13 12 11 12 12 11 11 12 13 15 15 15 16 16 16 16 16 15 14 12 13 14 16 16 17 17 18 18 18 17 16 16 15 15
19 20 20 22 21 14 10 13 9 12 5 11 10 11 11 9 7 7 7 8 9 10 10 12 14 15 15 14 14 14 14 14 14 13 11 12 12 14 14 16 16 16 17 16 16 14 13 13 13
22 24 33 25 20 21 19 10 10 12 17 13 5 4 7 7 6 5 5 6 8 10 11 11 12 13 13 13 12 13 13 12 13 14 11 11 12 12 13 8 11 14 14 12 13 12 12 12 12
28 33 32 30 20 23 21 23 14 7 18 27 23 15 5 6 5 6 5 4 8 11 10 10 11 12 13 12 10 12 12 12 12 14 13 13 15 11 11 6 6 4 7 9 6 8 10 9 12
27 29 31 29 30 26 27 23 22 16 25 28 28 23 6 1 1 3 5 4 3 8 13 11 11 11 12 12 10 10 12 13 12 13 14 15 17 10 12 7 5 4 5 10 9 8 9 10 12
29 27 30 34 24 27 24 25 22 12 24 30 27 20 5 7 5 5 5 6 3 1 12 12 11 11 11 12 9 9 12 13 12 12 14 18 18 11 11 13 6 5 7 11 14 11 8 10 6
34 34 29 31 28 28 27 30 23 19 21 29 26 18 15 8 5 8 4 4 3 3 8 11 9 10 11 11 12 8 9 11 13 12 14 16 21 14 11 12 11 6 7 8 11 7 6 4 4
29 30 36 29 24 26 23 35 27 24 13 26 26 25 12 8 6 6 2 1 5 2 2 9 7 7 10 8 11 7 9 11 10 12 11 13 17 17 12 12 12 6 3 2 11 13 1 1 3
30 35 32 32 28 25 20 28 26 23 13 22 26 24 19 14 6 4 2 2 1 1 2 8 7 7 8 8 7 10 8 9 10 11 9 10 15 15 9 12 9 8 5 5 5 4 8 2 2
32 29 32 35 29 19 24 25 27 30 23 30 27 22 23 17 9 5 4 2 3 5 4 5 6 7 7 7 7 8 9 9 11 9 11 7 11 13 13 8 13 7 7 6 7 5 5 4 3
35 36 33 27 25 22 26 28 32 28 33 32 27 24 18 14 13 9 3 3 5 4 2 5 2 6 7 7 8 10 13 12 12 13 10 10 9 11 11 8 9 12 7 7 10 9 9 7 11
37 39 38 35 29 19 26 32 35 32 39 43 42 35 21 15 12 9 8 8 6 2 5 6 7 6 8 9 8 9 11 12 13 11 11 11 11 10 10 13 10 11 10 8 8 13 11 13 12
38 35 35 37 33 37 33 45 42 42 46 47 45 34 25 21 14 11 9 6 2 4 5 5 5 5 7 8 7 7 8 10 12 13 13 14 12 11 11 13 15 15 14 12 12 13 12 10 13
41 33 34 38 38 42 35 50 43 38 39 40 29 24 28 22 16 11 12 5 2 6 8 9 9 8 8 9 8 9 11 12 12 12 12 12 12 12 13 14 15 17 15 14 15 12 12 12 11
46 34 36 36 38 41 43 43 44 39 40 40 28 18 16 17 15 13 9 4 5 9 11 12 11 9 8 8 9 9 10 10 12 12 11 12 12 12 13 14 14 15 17 16 15 15 13 13 14
36 40 39 39 40 48 41 40 49 43 42 37 26 23 18 16 13 9 7 6 9 12 14 14 12 10 6 4 6 8 10 10 13 14 15 15 16 16 16 15 15 15 14 14 15 14 15 13 14
42 38 41 43 43 48 36 40 42 38 36 40 29 21 18 12 11 6 8 9 10 13 14 15 14 11 10 6 4 5 7 11 12 15 16 17 17 17 15 14 14 14 13 15 15 15 16 16 15
47 40 43 42 42 48 37 48 47 38 34 25 19 15 15 13 11 11 9 12 10 12 16 16 14 13 11 9 6 5 7 6 8 11 13 15 15 15 13 13 13 15 15 15 16 17 18 19 21
46 48 43 48 50 49 42 42 39 30 27 19 19 19 20 18 14 13 15 11 10 13 16 15 14 12 10 8 6 4 5 6 8 11 12 13 13 13 13 12 12 12 13 12 14 16 18 17 18
50 44 46 46 53 57 49 42 41 28 22 24 23 24 24 18 11 10 12 10 11 13 16 16 14 12 10 8 5 3 3 5 6 7 8 9 10 9 9 9 10 10 11 13 15 16 16 17 18
46 55 50 44 49 51 59 53 40 39 35 26 24 23 21 17 15 13 12 10 11 13 18 17 14 11 9 6 5 2 3 3 4 6 7 8 7 6 6 6 7 9 10 11 13 15 18 19 20
50 53 52 49 56 54 53 54 23 25 24 23 19 21 19 19 18 14 12 11 12 16 18 16 13 11 8 5 3 3 3 3 5 5 6 6 6 5 6 6 7 9 10 12 13 17 17 20 21
Wind_Direction
242 225 192 209 137 158 173 70 47 59 45 32 23 33 25 14 19 54 80 72 78 90 98 103 104 110 115 112 107 104 99 99 100 97 97 97 91 82 82 84 84 86 85 84 84 86 84 80 84
255 241 205 194 165 168 236 13 37 36 42 44 49 47 29 31 44 65 73 82 83 92 101 103 106 112 118 117 113 108 104 102 101 101 100 102 100 92 87 88 89 88 88 86 88 87 90 91 96
243 221 224 144 162 200 43 29 44 45 60 56 44 28 43 49 56 57 77 88 85 92 103 101 106 111 118 120 117 113 109 108 104 105 105 104 105 102 95 93 95 92 91 94 91 84 79 86 97
259 272 217 137 190 329 355 23 41 51 46 31 29 49 44 47 52 68 82 89 87 92 101 104 107 111 119 123 122 119 115 113 107 108 108 108 105 105 102 98 97 97 95 94 98 96 87 88 91
226 262 234 175 200 7 351 1 18 41 39 33 34 67 53 45 63 72 82 88 89 93 93 104 109 112 120 125 126 125 120 116 112 110 110 110 107 106 106 102 100 97 95 97 101 103 99 97 96
275 152 310 185 195 1 346 350 12 16 29 38 47 49 71 68 69 75 83 82 90 88 94 103 110 113 120 124 129 129 126 121 118 112 111 110 110 107 106 104 103 101 95 97 103 106 104 105 112
278 273 207 231 332 353 0 346 28 31 27 45 18 22 64 82 75 78 78 78 87 93 91 104 111 114 118 125 128 132 130 128 122 116 113 112 111 112 108 107 108 109 105 102 103 106 105 109 118
269 274 269 256 281 325 355 348 332 341 1 5 358 1 58 85 82 75 69 76 81 88 86 102 116 115 115 122 129 133 133 131 127 121 116 116 113 114 112 112 115 117 116 109 107 106 107 105 111
273 279 284 300 292 319 353 343 347 317 340 343 2 6 44 71 79 74 67 76 81 86 87 102 123 125 122 119 127 132 136 136 133 127 120 116 118 122 121 128 124 124 121 118 116 110 110 113 111
273 277 278 297 303 337 349 327 18 344 8 345 6 12 36 70 81 81 83 95 99 113 113 114 130 136 132 126 125 132 137 140 145 141 134 131 128 132 128 137 132 130 130 128 123 118 115 119 127
272 271 258 299 299 296 307 342 344 334 315 325 20 74 77 76 91 105 117 136 140 139 129 128 136 139 142 137 126 135 138 142 153 156 151 147 142 138 139 113 123 132 135 124 130 127 130 130 141
270 266 271 282 302 289 295 299 320 343 305 288 305 333 57 106 118 146 157 162 161 155 150 138 140 150 152 150 133 142 143 147 154 164 165 163 162 150 150 129 128 120 129 135 115 131 137 140 156
270 272 273 282 282 287 287 295 300 311 295 289 289 299 327 333 344 179 194 195 184 170 163 156 147 158 159 161 148 144 154 157 158 164 172 172 173 166 161 154 145 138 144 158 149 143 146 153 169
274 279 276 276 285 284 290 292 296 298 298 286 290 299 275 222 223 242 234 224 230 296 172 162 158 161 167 173 165 159 157 157 159 164 174 179 179 177 172 170 163 156 155 158 168 160 151 154 117
272 274 280 276 280 282 287 286 288 297 295 285 288 300 308 308 285 217 241 272 303 304 173 168 165 164 174 181 185 176 169 163 168 164 169 177 183 182 181 177 178 174 169 160 166 159 151 129 116
272 274 272 278 278 278 278 280 292 301 276 283 285 293 304 307 310 318 225 316 325 324 209 176 168 173 181 188 194 199 188 183 176 177 176 177 179 184 185 182 184 194 217 236 298 306 159 305 349
267 268 273 277 277 278 262 284 290 290 296 285 285 294 304 313 310 311 214 158 134 274 293 189 186 191 189 199 207 210 210 204 198 187 189 191 182 184 193 194 195 202 247 260 279 244 306 277 213
265 269 273 275 283 264 271 279 282 283 291 278 284 294 298 305 298 291 215 209 185 195 197 198 211 205 205 200 220 228 228 227 211 210 202 230 195 190 193 211 193 217 222 262 280 270 253 263 274
267 270 272 279 274 264 272 280 279 282 278 276 281 288 293 294 300 293 260 238 215 232 16 332 240 230 217 218 227 242 229 229 218 215 216 223 219 201 203 239 217 280 243 257 279 284 286 288 310
263 267 270 277 275 279 279 280 279 279 271 265 270 280 288 288 287 270 229 220 219 300 318 299 302 297 236 237 241 250 238 234 226 232 227 241 229 228 232 256 241 259 264 251 265 284 291 299 301
260 263 267 271 274 275 282 275 274 272 266 263 265 279 286 289 286 279 267 235 240 307 308 302 297 281 256 248 251 248 252 240 234 231 235 241 238 240 245 255 258 269 267 265 272 283 282 290 303
259 264 268 269 271 269 275 274 270 275 272 272 270 280 286 287 284 263 290 259 270 336 337 328 321 296 275 234 247 237 240 240 238 238 230 239 244 253 258 264 258 265 272 273 278 284 286 292 293
258 265 267 270 270 272 269 275 268 270 271 274 276 285 286 287 286 284 284 317 336 341 333 333 326 312 288 269 247 245 246 258 271 263 258 250 255 259 263 268 264 264 272 272 276 285 290 289 297
262 261 266 268 270 267 266 270 267 266 269 277 281 285 292 291 289 288 294 304 322 334 333 336 336 332 316 282 259 270 248 256 258 258 249 253 262 268 269 268 270 267 269 274 281 287 289 289 295
253 256 258 261 260 262 268 268 267 271 277 272 280 277 291 291 291 294 298 307 314 326 338 340 342 345 344 334 301 277 257 256 247 249 247 252 258 263 265 267 269 270 270 279 288 292 298 301 300
246 246 251 257 262 267 266 263 267 272 284 274 278 281 290 306 299 295 295 301 307 320 332 339 340 339 341 335 317 286 291 265 260 256 258 257 256 260 262 265 271 276 280 289 294 300 304 307 308
248 243 249 260 266 271 267 268 271 270 271 273 273 273 278 294 296 292 299 302 308 318 329 335 341 342 335 323 306 283 254 266 269 266 262 259 260 259 263 269 274 283 290 296 302 306 309 313 315
244 252 247 252 256 259 263 265 268 277 269 272 270 272 278 281 284 293 296 295 306 318 331 333 338 341 350 349 343 327 293 284 275 270 266 263 266 264 267 273 281 287 295 302 307 312 316 317 318
242 246 250 253 253 257 262 263 265 270 285 278 270 275 278 276 279 287 294 291 305 318 327 329 330 332 336 339 328 312 292 275 273 272 271 270 266 268 271 277 287 294 300 307 313 317 319 319 319
244 245 247 249 249 252 259 262 275 271 287 293 279 280 279 281 280 284 286 290 298 315 323 324 327 325 327 326 320 289 256 259 265 266 267 264 267 272 279 286 293 301 308 313 315 316 320 321 320